Location: Oshawa
(43.9000°N, 78.8670°W)
Time: 23:10:57
(UTC-04:00)

Transit 2A Rocket - Visible Passes

Search period start: 01 April 2015 00:00
Search period end: 11 April 2015 00:00
Orbit: 585 x 922 km, 66.7° (Epoch: 01 April)

Date Brightness Start Highest point End Pass type
(mag) Time Alt. Az. Time Alt. Az. Time Alt. Az.
01 Apr 6.0 03:28:11 49° ENE 03:28:11 49° ENE 03:33:01 10° NE visible
01 Apr 6.4 05:08:07 26° WNW 05:10:07 31° NW 05:15:31 10° NNE visible
02 Apr 7.0 02:47:16 28° ENE 02:47:16 28° ENE 02:50:39 10° NE visible
02 Apr 5.8 04:27:12 44° WNW 04:27:45 45° NW 04:33:39 10° NNE visible
02 Apr 7.4 06:09:05 10° WNW 06:12:09 14° NNW 06:15:05 10° N visible
03 Apr 7.6 02:06:20 16° ENE 02:06:20 16° ENE 02:07:57 10° ENE visible
03 Apr 5.6 03:46:16 62° NNW 03:46:16 62° NNW 03:51:42 10° NNE visible
03 Apr 7.1 05:26:12 13° WNW 05:29:29 18° NNW 05:33:32 10° N visible
04 Apr 6.2 03:05:16 48° NE 03:05:16 48° NE 03:09:38 10° NE visible
04 Apr 6.7 04:45:12 22° WNW 04:46:54 25° NW 04:51:50 10° NNE visible
05 Apr 6.9 02:24:15 30° NE 02:24:15 30° NE 02:27:25 10° NE visible
05 Apr 6.3 04:04:10 34° NW 04:04:27 35° NW 04:10:01 10° NNE visible
05 Apr 7.6 05:47:10 10° NW 05:49:09 11° NNW 05:50:58 10° N visible
06 Apr 7.5 01:43:11 18° ENE 01:43:11 18° ENE 01:44:58 10° NE visible
06 Apr 6.1 03:23:07 46° NNW 03:23:07 46° NNW 03:28:08 10° NNE visible
06 Apr 7.4 05:03:02 10° WNW 05:06:24 15° NNW 05:09:41 10° N visible
07 Apr 7.9 01:02:05 10° ENE 01:02:05 10° ENE 01:02:07 10° ENE visible
07 Apr 6.3 02:42:00 44° NNE 02:42:00 44° NNE 02:46:08 10° NNE visible
07 Apr 7.1 04:21:56 18° WNW 04:23:45 20° NW 04:28:04 10° N visible
08 Apr 6.8 02:00:53 31° NE 02:00:53 31° NE 02:04:02 10° NE visible
08 Apr 6.7 03:40:48 27° NW 03:41:12 27° NW 03:46:20 10° NNE visible
09 Apr 7.3 01:19:42 21° NE 01:19:42 21° NE 01:21:45 10° NE visible
09 Apr 6.4 02:59:37 37° NNW 02:59:37 37° NNW 03:04:29 10° NNE visible
09 Apr 7.6 04:40:53 10° NW 04:43:22 12° NNW 04:45:39 10° N visible
10 Apr 7.7 00:38:29 13° NE 00:38:29 13° NE 00:39:13 10° NE visible
10 Apr 6.5 02:18:24 40° N 02:18:24 40° N 02:22:34 10° NNE visible
10 Apr 7.4 03:58:19 13° NW 04:00:37 16° NNW 04:04:13 10° N visible
